, OR

(GMT )
Tillamook

Weather History for KTMK - September, 2013

Change the Weather History Date:

Friday, September 27, 2013

  Actual Average Record
Temperature  
Mean Temperature 48 °F -  
Max Temperature 55 °F - - ()
Min Temperature 41 °F - - ()
Degree Days  
Heating Degree Days 17    
Moisture  
Dew Point 46 °F    
Average Humidity 95    
Maximum Humidity 100    
Minimum Humidity 88    
Precipitation  
Precipitation 0.02 in - - ()
Sea Level Pressure  
Sea Level Pressure 30.08 in    
Wind  
Wind Speed 2 mph (South)    
Max Wind Speed 15 mph    
Max Gust Speed 24 mph    
Visibility 6 miles    
Events Fog , Rain    
Averages and records for this station are not official NWS values.
T = Trace of Precipitation, MM = Missing Value Source: NWS Daily Summary

Daily Weather History Graph

Daily Weather History Graph

Search for Another Location

Airport or City:

Trip Planner

Search our weather history database for the weather conditions in past years. The results will help you decide how hot, cold, wet, or windy it might be!

Date:

Astronomy

Sep. 27, 2013 Rise Set
Actual Time 8:08 AM MDT 8:02 PM MDT
Civil Twilight 7:39 AM MDT 8:31 PM MDT
Nautical Twilight 7:04 AM MDT 9:06 PM MDT
Astronomical Twilight 6:29 AM MDT 9:41 PM MDT
Moon 12:53 AM MDT (9/27) 3:59 PM MDT (9/27)
Length of Visible Light 12h 52m
Length of Day
11h 53m
Last Quarter, 44% of the Moon is Illuminated
Sep 27
Last Quarter
Oct 4
New
Oct 11
First Quarter
Oct 18
Full
Oct 26
Last Quarter

Hourly Weather History & Observations

Time (MDT) Temp. Dew Point Humidity Pressure Visibility Wind Dir Wind Speed Gust Speed Precip Events Conditions
12:15 AM 44.6 °F 44.6 °F 100% 30.21 in 7.0 mi Calm Calm - N/A   Mostly Cloudy
12:35 AM 44.6 °F 44.6 °F 100% 30.20 in 10.0 mi Calm Calm - N/A   Scattered Clouds
12:55 AM 44.6 °F 42.8 °F 93% 30.20 in 10.0 mi Calm Calm - N/A   Clear
1:15 AM 42.8 °F 42.8 °F 100% 30.20 in 7.0 mi Calm Calm - N/A   Scattered Clouds
1:35 AM 44.6 °F 44.6 °F 100% 30.20 in 0.5 mi Calm Calm - N/A Fog Fog
1:55 AM 44.6 °F 42.8 °F 93% 30.20 in 4.0 mi Calm Calm - N/A   Scattered Clouds
2:15 AM 44.6 °F 42.8 °F 93% 30.20 in 10.0 mi Calm Calm - N/A   Clear
2:35 AM 41.0 °F 41.0 °F 100% 30.20 in 7.0 mi Calm Calm - N/A   Clear
2:55 AM 42.8 °F 41.0 °F 93% 30.19 in 10.0 mi Calm Calm - N/A   Scattered Clouds
3:15 AM 41.0 °F 41.0 °F 100% 30.19 in 3.0 mi Calm Calm - N/A   Mist
3:35 AM 41.0 °F 41.0 °F 100% 30.19 in 5.0 mi Calm Calm - N/A   Clear
3:55 AM 41.0 °F 41.0 °F 100% 30.19 in 7.0 mi Calm Calm - N/A   Scattered Clouds
4:15 AM 42.8 °F 41.0 °F 93% 30.18 in 10.0 mi Calm Calm - N/A   Scattered Clouds
4:35 AM 42.8 °F 41.0 °F 93% 30.18 in 7.0 mi Calm Calm - N/A   Mostly Cloudy
4:55 AM 42.8 °F 41.0 °F 93% 30.17 in 7.0 mi Calm Calm - N/A   Mostly Cloudy
5:15 AM 42.8 °F 42.8 °F 100% 30.16 in 10.0 mi Calm Calm - N/A   Overcast
5:35 AM 44.6 °F 42.8 °F 93% 30.16 in 10.0 mi Calm Calm - N/A   Overcast
5:55 AM 44.6 °F 42.8 °F 93% 30.15 in 7.0 mi Calm Calm - N/A   Overcast
6:15 AM 44.6 °F 44.6 °F 100% 30.16 in 10.0 mi Calm Calm - N/A   Overcast
6:35 AM 44.6 °F 44.6 °F 100% 30.15 in 7.0 mi Calm Calm - N/A   Overcast
6:55 AM 48.2 °F 46.4 °F 93% 30.14 in 10.0 mi Calm Calm - N/A   Overcast
7:15 AM 48.2 °F 46.4 °F 93% 30.13 in 10.0 mi Calm Calm - N/A   Mostly Cloudy
7:35 AM 46.4 °F 46.4 °F 100% 30.14 in 10.0 mi Calm Calm - N/A   Mostly Cloudy
7:55 AM 46.4 °F 46.4 °F 100% 30.13 in 10.0 mi Calm Calm - N/A   Overcast
8:15 AM 46.4 °F 46.4 °F 100% 30.13 in 10.0 mi Calm Calm - N/A   Overcast
8:35 AM 48.2 °F 46.4 °F 93% 30.13 in 10.0 mi Calm Calm - N/A   Overcast
8:55 AM 50.0 °F 48.2 °F 94% 30.13 in 10.0 mi Calm Calm - N/A   Overcast
9:15 AM 50.0 °F 48.2 °F 94% 30.12 in 10.0 mi Calm Calm - N/A   Overcast
9:35 AM 50.0 °F 48.2 °F 94% 30.12 in 10.0 mi Calm Calm - N/A   Overcast
9:55 AM 51.8 °F 50.0 °F 94% 30.13 in 10.0 mi Calm Calm - N/A   Overcast
10:15 AM 51.8 °F 50.0 °F 94% 30.13 in 5.0 mi Calm Calm - N/A Rain Rain
10:35 AM 53.6 °F 51.8 °F 94% 30.12 in 4.0 mi Calm Calm - N/A Rain Rain
10:55 AM 53.6 °F 51.8 °F 94% 30.12 in 4.0 mi Calm Calm - N/A Rain Rain
11:15 AM 55.4 °F 53.6 °F 94% 30.11 in 5.0 mi Calm Calm - N/A Rain Light Rain
11:35 AM 55.4 °F 51.8 °F 88% 30.10 in 4.0 mi SSE 9.2 mph - N/A Rain Rain
11:55 AM 55.4 °F 51.8 °F 88% 30.09 in 4.0 mi SSE 6.9 mph - N/A Rain Light Rain
12:15 PM 55.4 °F 51.8 °F 88% 30.09 in 2.5 mi SSE 13.8 mph 20.7 mph N/A Rain Light Rain
12:35 PM 55.4 °F 53.6 °F 94% 30.08 in 2.5 mi South 10.4 mph 17.3 mph N/A Rain Rain
12:55 PM 55.4 °F 53.6 °F 94% 30.07 in 4.0 mi South 15.0 mph 20.7 mph N/A Rain Rain
1:15 PM 55.4 °F 53.6 °F 94% 30.06 in 3.0 mi South 13.8 mph 24.2 mph N/A Rain Light Rain
1:35 PM 55.4 °F 53.6 °F 94% 30.06 in 3.0 mi South 13.8 mph 19.6 mph N/A Rain Light Rain
1:55 PM - - N/A% 30.06 in 4.0 mi South 6.9 mph 19.6 mph N/A Rain Light Rain
2:15 PM - - N/A% 30.05 in 5.0 mi South 5.8 mph 16.1 mph N/A   Light Drizzle
2:35 PM - - N/A% 30.04 in 2.5 mi South 6.9 mph 18.4 mph 0.01 in Rain Light Rain
2:55 PM - - N/A% 30.04 in 2.5 mi South 10.4 mph - 0.01 in   Light Drizzle
3:15 PM - - N/A% 30.03 in 2.5 mi South 8.1 mph - N/A Rain Light Rain
3:35 PM - - N/A% 30.03 in 2.0 mi South 10.4 mph - N/A Rain Light Rain
3:55 PM - - N/A% 30.02 in 2.5 mi South 5.8 mph 18.4 mph N/A Rain Light Rain
4:15 PM - - N/A% 30.02 in 4.0 mi South 10.4 mph 19.6 mph N/A   Light Drizzle
4:35 PM - - N/A% 30.02 in 3.0 mi South 9.2 mph 17.3 mph N/A Rain Light Rain
4:55 PM - - N/A% 30.02 in 5.0 mi South 13.8 mph 19.6 mph N/A   Haze
5:15 PM - - N/A% 30.02 in 5.0 mi South 9.2 mph - N/A   Drizzle
5:35 PM - - N/A% 30.02 in 4.0 mi South 6.9 mph 19.6 mph N/A Rain Light Rain
5:55 PM - - N/A% 30.01 in 5.0 mi South 13.8 mph 17.3 mph N/A   Haze
6:15 PM - - N/A% 30.01 in 7.0 mi South 10.4 mph 17.3 mph N/A   Light Drizzle
6:35 PM - - N/A% 30.01 in 7.0 mi South 9.2 mph - N/A   Drizzle
6:55 PM - - N/A% 30.01 in 4.0 mi South 9.2 mph - N/A   Drizzle
7:15 PM - - N/A% 30.00 in 5.0 mi South 8.1 mph - 0.01 in   Drizzle
7:35 PM - - N/A% 30.00 in 4.0 mi South 6.9 mph - 0.01 in Rain Heavy Rain
7:55 PM - - N/A% 29.99 in 4.0 mi Calm Calm - 0.01 in   Drizzle
8:15 PM - - N/A% 29.99 in 7.0 mi Calm Calm - N/A   Drizzle
8:35 PM - - N/A% 29.97 in 5.0 mi Calm Calm - N/A   Heavy Drizzle
8:55 PM - - N/A% 29.97 in 3.0 mi Calm Calm - N/A Rain Heavy Rain
9:15 PM - - N/A% 29.97 in 4.0 mi Calm Calm - N/A Rain Rain
9:35 PM - - N/A% 29.96 in 1.5 mi Calm Calm - N/A Rain Heavy Rain
9:55 PM - - N/A% 29.96 in 4.0 mi Calm Calm - N/A Rain Heavy Rain
10:15 PM - - N/A% 29.95 in 2.5 mi Calm Calm - N/A Rain Rain
10:35 PM - - N/A% 29.95 in 4.0 mi SSW 8.1 mph - N/A Rain Heavy Rain
10:55 PM - - N/A% 29.94 in 5.0 mi SSW 8.1 mph - N/A Rain Rain
11:15 PM - - N/A% 29.94 in 10.0 mi SSW 9.2 mph - N/A Rain Rain
11:35 PM - - N/A% 29.94 in 7.0 mi South 11.5 mph 16.1 mph N/A Rain Light Rain
11:55 PM - - N/A% 29.93 in 10.0 mi South 8.1 mph - N/A Rain Rain